FW7479 Weather Reports


time (UTC)temp
C
wind
direction
speed
KPH
gust
KPH
rain 1hr
cm
rain 24hr
cm
rain mn
cm
humidity
%
barometer
mb
20260510105404 14 150 0.0 0.0 0.00 0.00 0.00 82 1012.9
20260510102908 14 149 0.0 0.0 0.00 0.00 0.00 82 1012.9
20260510101341 14 149 0.0 0.0 0.00 0.00 0.00 82 1012.7
20260510100834 14 150 0.0 0.0 0.00 0.00 0.00 82 1012.8
20260510100337 14 150 0.0 0.0 0.00 0.00 0.00 82 1012.7
20260510095843 14 149 0.0 0.0 0.00 0.00 0.00 82 1012.4
20260510095341 14 149 0.0 0.0 0.00 0.00 0.00 82 1012.4
20260510094828 14 150 0.0 0.0 0.00 0.00 0.00 82 1012.2
20260510094320 14 150 0.0 0.0 0.00 0.00 0.00 82 1012.0
20260510093404 14 150 0.0 0.0 0.00 0.00 0.00 82 1011.8
20260510092323 13 149 0.0 0.0 0.00 0.00 0.00 82 1011.8
20260510091819 13 149 0.0 1.6 0.00 0.00 0.00 82 1011.9
20260510090401 13 159 4.8 4.8 0.00 0.00 0.00 82 1011.8
20260510085332 13 224 0.0 1.6 0.00 0.00 0.00 82 1012.2
20260510084814 13 224 0.0 1.6 0.00 0.00 0.00 82 1012.3
20260510084312 13 223 1.6 1.6 0.00 0.00 0.00 82 1012.1
20260510082907 13 224 0.0 1.6 0.00 0.00 0.00 82 1011.8
20260510081858 13 223 0.0 1.6 0.00 0.00 0.00 82 1011.5
20260510081352 13 224 0.0 0.0 0.00 0.00 0.00 82 1011.4
20260510080843 13 224 0.0 0.0 0.00 0.00 0.00 81 1011.4
20260510080348 13 223 0.0 0.0 0.00 0.00 0.00 81 1011.3
20260510075852 13 223 0.0 0.0 0.00 0.00 0.00 81 1011.3
20260510075355 13 224 0.0 0.0 0.00 0.00 0.00 81 1011.4
20260510074854 13 224 0.0 0.0 0.00 0.00 0.00 81 1011.3
20260510074348 13 224 0.0 0.0 0.00 0.00 0.00 81 1011.3
20260510073841 13 224 0.0 0.0 0.00 0.00 0.00 81 1011.3
20260510071358 13 224 0.0 0.0 0.00 0.00 0.00 80 1011.1
20260510070900 14 224 0.0 0.0 0.00 0.00 0.00 80 1011.1
20260510070353 14 224 0.0 0.0 0.00 0.00 0.00 80 1011.1
20260510065820 14 224 0.0 0.0 0.00 0.00 0.00 79 1011.2
20260510065315 14 224 0.0 1.6 0.00 0.00 0.00 80 1011.2
20260510064328 14 223 0.0 0.0 0.00 0.00 0.00 79 1011.3
20260510063319 14 223 0.0 0.0 0.00 0.00 0.00 79 1011.4
20260510062814 14 224 0.0 0.0 0.00 0.00 0.00 79 1011.5
20260510061825 14 224 0.0 1.6 0.00 0.00 0.00 79 1011.5
20260510061320 15 224 0.0 1.6 0.00 0.00 0.00 79 1011.5
20260510060815 15 223 0.0 0.0 0.00 0.00 0.00 79 1011.5
20260510060311 15 224 0.0 1.6 0.00 0.00 0.00 79 1011.5
20260510055826 15 224 0.0 1.6 0.00 0.00 0.00 78 1011.6
20260510055320 15 224 0.0 1.6 0.00 0.00 0.00 78 1011.6
20260510054817 15 224 1.6 3.2 0.00 0.00 0.00 78 1011.5
20260510053831 15 224 1.6 3.2 0.00 0.00 0.00 76 1011.5
20260510053325 15 223 0.0 1.6 0.00 0.00 0.00 76 1011.4
20260510052819 15 224 0.0 1.6 0.00 0.00 0.00 75 1011.4
20260510051813 15 224 0.0 1.6 0.00 0.00 0.00 75 1011.4
20260510051311 15 223 0.0 1.6 0.00 0.00 0.00 75 1011.3
20260510050827 16 224 0.0 0.0 0.00 0.00 0.00 74 1011.3
20260510050325 16 223 0.0 0.0 0.00 0.00 0.00 74 1011.2
20260510045842 16 223 0.0 0.0 0.00 0.00 0.00 74 1011.1
20260510045328 16 224 0.0 0.0 0.00 0.00 0.00 73 1011.1
20260510044830 16 223 0.0 1.6 0.00 0.00 0.00 73 1011.2
20260510044316 16 224 0.0 1.6 0.00 0.00 0.00 73 1011.1
20260510043813 16 224 0.0 0.0 0.00 0.00 0.00 72 1011.0
20260510042908 16 224 0.0 1.6 0.00 0.00 0.00 72 1011.2
20260510042400 17 224 0.0 1.6 0.00 0.00 0.00 71 1011.2
20260510041856 17 224 0.0 1.6 0.00 0.00 0.00 71 1011.1
20260510035408 17 223 0.0 1.6 0.00 0.00 0.00 69 1010.7
20260510033405 18 223 0.0 0.0 0.00 0.00 0.00 67 1010.5
20260510032848 18 224 0.0 0.0 0.00 0.00 0.00 67 1010.4
20260510032331 18 224 0.0 0.0 0.00 0.00 0.00 67 1010.4
20260510031822 18 224 0.0 0.0 0.00 0.00 0.00 66 1010.3
20260510031325 18 224 0.0 0.0 0.00 0.00 0.00 65 1010.4
20260510030822 18 223 0.0 1.6 0.00 0.00 0.00 65 1010.3
20260510024333 19 224 0.0 0.0 0.00 0.00 0.00 62 1009.9
20260510023828 20 223 0.0 1.6 0.00 0.00 0.00 61 1009.8
20260510023315 20 224 0.0 1.6 0.00 0.00 0.00 61 1009.7
20260510021859 21 223 0.0 1.6 0.00 0.00 0.00 57 1009.2
20260510013408 23 224 0.0 0.0 0.00 0.00 0.00 48 1008.5
20260510012838 24 223 0.0 0.0 0.00 0.00 0.00 47 1008.4
20260510012325 25 223 0.0 0.0 0.00 0.00 0.00 47 1008.3
20260510011817 25 223 0.0 0.0 0.00 0.00 0.00 45 1008.3
20260510005859 27 223 0.0 0.0 0.00 0.00 0.00 42 1008.0
20260510005355 27 224 0.0 0.0 0.00 0.00 0.00 41 1008.0
20260510004849 27 224 0.0 0.0 0.00 0.00 0.00 39 1008.1
20260510004327 27 224 0.0 1.6 0.00 0.00 0.00 37 1008.0
20260510003817 28 223 0.0 3.2 0.00 0.00 0.00 37 1008.0
20260510003320 28 224 0.0 3.2 0.00 0.00 0.00 35 1008.0
20260510002816 28 224 1.6 3.2 0.00 0.00 0.00 34 1007.9
20260510001410 29 225 1.6 1.6 0.00 0.00 0.00 36 1007.8
20260509235902 30 232 0.0 0.0 0.00 0.00 0.00 32 1007.6
20260509235345 30 232 0.0 1.6 0.00 0.00 0.00 31 1007.7
20260509234858 30 232 1.6 4.8 0.00 0.00 0.00 33 1007.9
20260509234351 30 232 0.0 4.8 0.00 0.00 0.00 30 1008.0
20260509233849 30 224 0.0 1.6 0.00 0.00 0.00 31 1007.9
20260509232839 30 223 1.6 4.8 0.00 0.00 0.00 30 1007.9
20260509232324 30 223 1.6 4.8 0.00 0.00 0.00 30 1008.0
20260509231816 30 209 0.0 3.2 0.00 0.00 0.00 30 1008.0
20260509230321 30 152 3.2 8.0 0.00 0.00 0.00 28 1007.9
20260509225832 30 146 1.6 8.0 0.00 0.00 0.00 27 1007.9
20260509225318 30 225 3.2 6.4 0.00 0.00 0.00 26 1007.9
20260509224314 31 208 3.2 4.8 0.00 0.00 0.00 29 1007.8
20260509223407 30 227 1.6 6.4 0.00 0.00 0.00 27 1007.7
20260509222903 31 215 3.2 8.0 0.00 0.00 0.00 29 1007.7
20260509222405 31 142 3.2 8.0 0.00 0.00 0.00 28 1007.8
20260509221855 31 185 4.8 8.0 0.00 0.00 0.00 28 1007.7
20260509221340 31 183 4.8 8.0 0.00 0.00 0.00 28 1007.7
20260509220842 31 227 3.2 6.4 0.00 0.00 0.00 28 1007.8
20260509220342 31 219 3.2 8.0 0.00 0.00 0.00 29 1007.8
20260509215836 31 227 1.6 9.7 0.00 0.00 0.00 32 1007.8
20260509215322 31 219 4.8 9.7 0.00 0.00 0.00 30 1007.8
20260509214815 31 261 3.2 6.4 0.00 0.00 0.00 29 1007.8
20260509214317 31 139 3.2 8.0 0.00 0.00 0.00 29 1007.8
20260509212850 31 167 12.9 19.3 0.00 0.00 0.00 29 1007.8
20260509211853 31 188 3.2 8.0 0.00 0.00 0.00 30 1007.8
20260509211351 31 193 1.6 9.7 0.00 0.00 0.00 30 1007.9
20260509210847 30 176 4.8 9.7 0.00 0.00 0.00 32 1007.9
20260509210332 30 148 1.6 8.0 0.00 0.00 0.00 30 1007.9
20260509205820 30 186 1.6 4.8 0.00 0.00 0.00 31 1007.9
20260509204357 31 169 8.0 20.9 0.00 0.00 0.00 30 1008.0
20260509203851 31 177 6.4 8.0 0.00 0.00 0.00 29 1008.1
20260509202352 31 263 3.2 9.7 0.00 0.00 0.00 29 1008.2
20260509201840 32 144 4.8 9.7 0.00 0.00 0.00 28 1008.2
20260509195830 31 179 3.2 8.0 0.00 0.00 0.00 30 1008.5
20260509195338 31 158 3.2 8.0 0.00 0.00 0.00 27 1008.6
20260509194819 31 267 4.8 8.0 0.00 0.00 0.00 28 1008.6
20260509194329 31 226 3.2 8.0 0.00 0.00 0.00 28 1008.6
20260509193400 31 244 4.8 9.7 0.00 0.00 0.00 28 1008.7
20260509192849 31 153 8.0 9.7 0.00 0.00 0.00 27 1008.8
20260509192345 31 226 3.2 8.0 0.00 0.00 0.00 26 1008.9
20260509191841 31 265 3.2 9.7 0.00 0.00 0.00 30 1008.8
20260509190358 30 184 9.7 20.9 0.00 0.00 0.00 30 1008.9
20260509185901 30 173 6.4 20.9 0.00 0.00 0.00 29 1008.9
20260509184902 31 147 8.0 16.1 0.00 0.00 0.00 27 1008.9
20260509184406 31 202 3.2 14.5 0.00 0.00 0.00 29 1008.9
20260509182359 31 215 4.8 6.4 0.00 0.00 0.00 23 1009.0
20260509180838 30 157 3.2 8.0 0.00 0.00 0.00 25 1009.0
20260509180335 30 223 1.6 9.7 0.00 0.00 0.00 31 1008.9
20260509175826 30 249 3.2 9.7 0.00 0.00 0.00 33 1009.0
20260509175314 30 279 3.2 9.7 0.00 0.00 0.00 30 1009.0
20260509172311 28 257 4.8 8.0 0.00 0.00 0.00 33 1009.3
20260509171401 29 224 1.6 6.4 0.00 0.00 0.00 36 1009.4
20260509170857 28 169 1.6 6.4 0.00 0.00 0.00 37 1009.4
20260509170351 29 253 1.6 4.8 0.00 0.00 0.00 39 1009.4
20260509165838 28 136 0.0 6.4 0.00 0.00 0.00 39 1009.4
20260509162409 26 231 4.8 8.0 0.00 0.00 0.00 49 1009.7
20260509161407 26 152 3.2 8.0 0.00 0.00 0.00 52 1009.6
20260509160320 25 237 4.8 6.4 0.00 0.00 0.00 53 1009.7
20260509155821 25 223 3.2 6.4 0.00 0.00 0.00 55 1009.7
20260509155317 25 190 4.8 8.0 0.00 0.00 0.00 55 1009.8
20260509152900 24 234 3.2 6.4 0.00 0.00 0.00 57 1009.6
20260509152351 23 197 0.0 4.8 0.00 0.00 0.00 59 1009.7
20260509145904 22 238 1.6 8.0 0.00 0.00 0.00 63 1009.7
20260509145407 21 246 4.8 6.4 0.00 0.00 0.00 63 1009.8
20260509144857 22 249 1.6 4.8 0.00 0.00 0.00 63 1009.8
20260509144403 22 231 3.2 4.8 0.00 0.00 0.00 63 1009.9
20260509143409 21 159 1.6 6.4 0.00 0.00 0.00 66 1009.9
20260509142326 20 254 1.6 4.8 0.00 0.00 0.00 68 1009.9
20260509141817 20 258 3.2 4.8 0.00 0.00 0.00 69 1009.9
20260509141410 20 264 3.2 4.8 0.00 0.00 0.00 68 1009.8
20260509140903 20 275 1.6 6.4 0.00 0.00 0.00 70 1009.8
20260509134404 18 170 3.2 4.8 0.00 0.00 0.00 75 1009.8
20260509133902 17 205 1.6 6.4 0.00 0.00 0.00 77 1009.8
20260509132855 16 184 1.6 6.4 0.00 0.00 0.00 81 1009.8
20260509132341 16 162 3.2 6.4 0.00 0.00 0.00 83 1009.9
20260509131830 15 153 4.8 4.8 0.00 0.00 0.00 85 1009.8
20260509131313 15 253 1.6 3.2 0.00 0.00 0.00 87 1009.8
20260509130405 14 259 3.2 3.2 0.00 0.00 0.00 88 1009.8
20260509125852 13 271 1.6 3.2 0.00 0.00 0.00 89 1009.8
20260509125327 13 273 0.0 1.6 0.00 0.00 0.00 89 1009.7
20260509124815 13 273 0.0 1.6 0.00 0.00 0.00 88 1009.6
20260509123351 12 273 0.0 1.6 0.00 0.00 0.00 88 1009.7
20260509121358 11 273 0.0 1.6 0.00 0.00 0.00 86 1009.6
20260509120855 11 273 0.0 1.6 0.00 0.00 0.00 87 1009.6
20260509120344 11 273 0.0 0.0 0.00 0.00 0.00 85 1009.5
20260509115848 11 273 0.0 0.0 0.00 0.00 0.00 85 1009.5
20260509115339 11 273 0.0 0.0 0.00 0.00 0.00 85 1009.5
20260509114822 11 273 0.0 0.0 0.00 0.00 0.00 85 1009.3
20260509114316 11 273 0.0 0.0 0.00 0.00 0.00 85 1009.2
20260509113410 11 273 0.0 0.0 0.00 0.00 0.00 85 1009.1
20260509112407 11 273 0.0 0.0 0.00 0.00 0.00 85 1008.9